Location: Acton
(51.4942°N, 0.2232°W)
Time: 23:27:16
(UTC+00:00)

Nadezhda 4 Rocket - Pass Details

Date: 18 September 2020
Orbit: 949 x 992 km, 82.9° (Epoch: 30 October)

Event Time Altitude Azimuth Distance (km) Brightness Sun altitude
Rises 18:49:06 0° 353° (N) 3,644 7.3 -7.2°
Reaches altitude 10° 18:51:49 10° 1° (N) 2,691 6.5 -7.7°
Maximum altitude 18:57:31 38° 69° (ENE) 1,412 4.5 -8.5°
Drops below altitude 10° 19:03:10 10° 137° (SE) 2,672 5.8 -9.4°
Enters shadow 19:04:43 - 142° (SE) 3,216 6.2 -9.6°
